Location: Castelnau
(43.6639°N, 0.8431°W)
Time: 19:34:53
(UTC+00:00)

Cosmos 1943 Rocket - Pass Details

Date: 13 January 2026
Orbit: 811 x 842 km, 71.0° (Epoch: 11 February)

Event Time Altitude Azimuth Distance (km) Brightness Sun altitude
Rises 05:56:41 0° 199° (SSW) 3,325 5.2 -17.3°
Reaches altitude 10° 05:59:06 10° 199° (SSW) 2,395 4.5 -16.9°
Maximum altitude 06:04:34 80° 113° (ESE) 829 2.2 -15.9°
Drops below altitude 10° 06:10:04 10° 27° (NNE) 2,406 4.7 -15.0°
Sets 06:12:30 0° 27° (NNE) 3,343 5.5 -14.5°
